Location: Arthurs Seat
(13.1500°N, 59.6000°W)
Time: 08:46:51
(UTC+00:00)

LightSail 2 - Visible Passes

Search period start: 21 November 2019 00:00
Search period end: 01 December 2019 00:00
Orbit: 698 x 729 km, 24.0° (Epoch: 21 November)

Date Brightness Start Highest point End Pass type
(mag) Time Alt. Az. Time Alt. Az. Time Alt. Az.
21 Nov 6.7 07:42:06 30° ENE 07:42:06 30° ENE 07:45:03 10° E visible
21 Nov 5.3 09:21:05 12° WNW 09:25:47 68° SSW 09:30:59 10° ESE visible
21 Nov 6.6 23:33:46 10° SW 23:36:45 29° SSW 23:36:45 29° SSW visible
22 Nov 5.0 08:26:50 58° WNW 08:27:52 87° NNE 08:33:04 10° ESE visible
22 Nov 6.5 22:36:20 10° SSW 22:40:34 26° SSE 22:42:31 21° ESE visible
23 Nov 8.0 00:20:54 10° WSW 00:21:30 13° WSW 00:21:30 13° WSW visible
23 Nov 7.0 07:32:35 28° E 07:32:35 28° E 07:35:03 10° ESE visible
23 Nov 6.0 09:11:34 15° W 09:15:25 38° SSW 09:20:14 10° SE visible
23 Nov 5.5 23:23:02 10° WSW 23:27:15 56° SSW 23:27:15 56° SSW visible
24 Nov 5.3 08:17:20 54° SSW 08:17:31 55° SSW 08:22:34 10° SE visible
24 Nov 5.7 22:25:18 10° SW 22:30:12 47° SSE 22:33:00 23° E visible
25 Nov 7.7 00:10:45 10° W 00:11:59 17° W 00:11:59 17° W visible
25 Nov 7.4 07:23:05 21° ESE 07:23:05 21° ESE 07:24:45 10° ESE visible
25 Nov 6.8 09:02:04 14° WSW 09:05:02 22° SSW 09:08:59 10° SSE visible
25 Nov 5.1 23:12:40 10° WSW 23:17:43 73° NNW 23:17:43 73° NNW visible
26 Nov 6.4 08:07:48 30° S 08:07:48 30° S 08:11:39 10° SE visible
26 Nov 5.1 22:14:41 10° WSW 22:19:50 82° SSE 22:23:26 19° ENE visible
27 Nov 7.4 00:00:49 10° W 00:02:25 19° WNW 00:02:25 19° WNW visible
27 Nov 7.9 07:13:31 13° SE 07:13:31 13° SE 07:14:06 10° SE visible
27 Nov 7.4 08:52:47 10° SW 08:54:41 12° SSW 08:56:35 10° S visible
27 Nov 5.6 23:02:34 10° W 23:07:29 47° NNW 23:08:07 44° N visible
28 Nov 7.3 07:58:11 16° S 07:58:11 16° S 08:00:06 10° SSE visible
28 Nov 5.4 22:04:24 10° W 22:09:30 62° NNW 22:13:48 14° ENE visible
28 Nov 7.3 23:51:00 10° WNW 23:52:47 19° NW 23:52:47 19° NW visible
29 Nov 6.1 22:52:40 10° WNW 22:57:17 33° NNW 22:58:26 30° NNE visible
30 Nov 5.9 21:54:22 10° W 21:59:13 41° NNW 22:04:03 10° NE visible
30 Nov 7.2 23:41:09 10° WNW 23:43:04 18° NW 23:43:04 18° NW visible
